Flag for Brazil Weather past 2 weeks in Florianópolis, Santa Catarina, Brazil

Now
59 °F

Clear.


Feels Like: 58 °F
Forecast: N/A
Wind: 6 mph from Southeast

Location: Florianopolis Aeroporto

Current Time: Aug 27, 2014 at 6:41:15 PM

Latest Report: Aug 27, 2014 at 6:00 PM


Visibility: 10 mi

Pressure: 30.07 "Hg

Humidity: 63%

Dew point: 46 °F

Location of FlorianópolisLocation

Historic Weather in Florianópolis — Graph

°F

Florianópolis temperature yesterday

Maximum temperature yesterday: 72 °F (at 1:00 PM)
Minimum temperature yesterday: 61 °F (at 12:00 AM)
Average temperature yesterday: 65 °F

Past Weeks' High & Low Weather Summary

 TemperatureHumidityPressure
High90 °F (Aug 25, 2:00 PM)100% (Aug 17, 8:00 PM)30.45 "Hg (Aug 17, 8:00 PM)
Low48 °F (Aug 14, 5:00 AM)26% (Aug 25, 2:00 PM)29.71 "Hg (Aug 25, 2:00 PM)
Average64 °F76%30.12 "Hg
* Reported Aug 12 5:00 PM — Aug 27 5:00 PM, Florianópolis, Weather by CustomWeather, © 2014

Note: Actual official high and low records may vary slightly from our data, if they occured in-between our weather recording intervals... More about our weather records

Advertising

Florianópolis weather history for previous 24 hours

 ConditionsComfort  
Time TempWeatherWind HumidityBarometerVisibility
5:00 PM
Aug 27
61 °FClear.12 mph52%30.04 "Hg10 mi
4:00 PM63 °FSunny.12 mph49%30.04 "Hg10 mi
3:00 PM63 °FSunny.13 mph45%30.04 "Hg10 mi
2:00 PM64 °FSunny.9 mph49%30.04 "Hg10 mi
1:00 PM64 °FPassing clouds.10 mph46%30.07 "HgN/A
12:00 PM66 °FSunny.6 mph35%30.09 "Hg10 mi
11:00 AM64 °FPassing clouds.3 mph40%30.09 "HgN/A
10:00 AM63 °FSunny.2 mph45%30.09 "Hg10 mi
9:00 AM57 °FSunny.6 mph51%30.09 "Hg10 mi
8:00 AM55 °FSunny.7 mph59%30.07 "Hg10 mi
7:00 AM54 °FSunny.3 mph63%30.04 "Hg10 mi
6:00 AM55 °FSunny.3 mph59%30.04 "Hg10 mi
5:00 AM55 °FClear.7 mph67%30.01 "Hg10 mi
4:00 AM55 °FClear.6 mph72%30.01 "Hg10 mi
3:00 AM55 °FClear.5 mph88%29.98 "Hg10 mi
2:00 AM61 °FClear.10 mph72%29.95 "Hg10 mi
1:00 AM61 °FClear.10 mph72%29.95 "Hg10 mi
12:00 AM61 °FClear.2 mph72%30.01 "Hg10 mi
11:00 PM
Aug 26
61 °FClear.3 mph72%30.01 "Hg10 mi
10:00 PM61 °FClear.10 mph77%29.98 "Hg10 mi
9:00 PM64 °FClear.12 mph64%29.95 "Hg10 mi
8:00 PM64 °FClear.2 mph64%29.95 "Hg10 mi
7:00 PM64 °FClear.10 mph73%29.89 "Hg10 mi
6:00 PM66 °FClear.5 mph60%29.86 "Hg10 mi
Weather by CustomWeather, © 2014

See weather overviewHow to use our weather pages